Probability
0 0 0 0 0 0 0 0 0 0 0 0 0 0 0 0 0 0 0 0 0 0 0 0 0 0 0 0 0 0 0 0 0 0 0 0 1 0 0 0 0 0 0
0 0 0 0 0 0 0 0 0 0 0 0 0 0 0 0 0 0 0 0 0 0 0 0 0 0 0 0 0 0 0 0 0 0 0 0 1 0 0 0 0 0 0
0 0 1 1 0 0 0 0 0 0 0 0 0 0 0 0 0 0 0 0 0 0 0 0 0 0 0 0 0 0 0 0 0 0 0 0 0 0 0 0 0 0 0
0 1 2 1 0 0 0 0 0 0 0 0 0 0 0 0 0 0 0 0 0 0 0 0 0 0 0 0 0 0 0 0 0 0 0 0 0 0 0 0 0 0 0
0 1 1 1 0 0 0 0 0 0 0 0 0 0 0 0 0 0 0 0 0 0 0 0 0 0 0 0 0 0 0 0 1 1 0 0 1 1 1 0 0 0 0
0 0 0 0 0 0 0 0 0 0 0 0 0 0 0 0 0 0 0 0 0 0 0 0 1 0 0 0 0 0 0 1 1 1 1 1 1 1 1 0 0 0 0
0 0 0 0 0 0 0 0 0 0 0 0 0 0 0 0 0 0 0 0 0 0 0 0 0 0 0 0 0 0 0 1 1 1 0 1 1 1 0 0 0 0 0
0 0 0 0 0 0 0 0 0 0 0 0 0 0 0 0 0 0 0 0 0 0 0 0 0 0 0 0 0 0 0 1 1 0 0 0 1 1 0 0 0 0 0
0 0 0 0 0 0 0 0 0 0 0 0 0 0 0 0 0 0 0 0 0 0 0 0 0 0 0 1 0 0 0 0 0 0 0 0 0 1 1 1 0 0 1
1 0 0 0 0 0 0 0 0 0 0 0 0 0 0 0 0 0 0 0 0 0 0 0 0 0 0 0 0 0 0 0 0 0 0 0 0 0 0 0 0 0 1
3 1 0 0 0 0 0 0 0 0 0 0 0 0 0 0 0 0 0 0 0 0 0 0 0 0 0 0 0 0 0 0 0 0 0 0 0 0 0 0 0 0 1
4 2 0 0 0 0 0 0 0 0 0 0 0 0 0 0 0 0 0 0 0 0 0 0 0 0 0 0 0 0 0 0 0 0 0 0 0 0 0 0 0 0 0
5 3 1 1 1 0 0 0 0 0 0 0 0 0 0 0 0 0 0 0 0 0 0 0 0 0 0 0 0 0 0 0 0 0 0 0 0 0 0 0 0 0 0
4 2 2 2 1 0 0 0 0 0 0 0 0 0 0 0 0 0 0 0 0 0 0 0 0 0 0 0 0 0 0 0 0 0 0 0 0 0 0 0 0 0 0
3 2 1 2 1 0 0 0 0 0 0 0 0 0 0 0 0 0 0 0 0 0 0 0 0 0 0 0 0 0 0 0 0 0 0 0 0 0 0 0 0 0 0
4 2 1 1 2 1 0 0 0 0 0 0 0 0 0 0 0 0 0 0 0 0 0 0 0 0 0 0 0 0 0 0 0 0 0 0 0 0 0 0 0 0 0
5 3 2 2 2 1 0 0 0 0 0 0 0 0 0 0 0 0 0 0 0 0 0 0 0 0 0 0 0 0 0 0 0 0 0 0 0 0 0 0 0 0 0
6 4 3 2 2 1 1 1 0 0 0 0 0 0 0 0 0 0 0 0 0 0 0 0 0 0 0 0 0 0 0 1 1 0 0 0 0 0 0 0 0 0 0
8 6 4 2 1 1 2 2 1 1 0 0 0 0 0 0 0 0 0 0 0 0 0 0 0 0 0 0 0 0 0 1 1 0 0 0 0 0 0 0 0 0 0
9 7 5 3 1 1 3 3 2 1 0 0 0 0 0 0 0 0 0 0 0 0 0 0 0 0 0 1 1 1 0 0 0 0 0 0 0 0 0 0 0 0 0
10 9 7 5 3 2 2 2 1 1 1 1 1 2 1 0 0 0 0 0 0 0 0 0 1 1 2 3 2 1 0 0 0 0 0 0 0 0 0 0 0 0 0
10 10 9 6 4 2 1 1 0 0 1 2 3 3 2 0 0 0 0 0 0 0 0 1 2 3 4 4 2 1 1 1 0 0 0 0 0 0 0 0 0 0 0
8 9 8 7 5 3 1 0 0 0 1 3 4 3 2 1 0 0 0 1 1 1 0 1 3 4 4 4 4 4 3 2 1 1 0 0 0 0 0 0 0 0 0
7 7 7 7 7 5 1 0 0 0 2 4 5 4 3 2 1 0 1 2 3 2 1 0 2 3 3 4 5 5 3 2 2 1 0 0 0 0 0 0 0 0 0
7 7 6 7 8 5 2 0 0 1 3 6 6 4 3 2 1 0 2 5 5 4 3 1 1 1 1 2 2 2 1 1 1 1 1 1 0 0 1 0 0 0 0
8 7 6 7 7 5 2 0 1 2 4 6 7 4 2 1 0 1 3 7 8 7 5 3 1 0 0 0 0 1 0 1 2 2 2 2 1 0 1 0 0 0 0
Wind_Speed
4 4 3 2 2 2 3 2 2 3 2 2 1 1 1 2 1 2 5 7 6 5 5 5 4 4 5 5 5 5 6 6 5 5 6 6 7 7 7 7 6 6 6
4 3 3 2 2 2 1 2 3 3 2 2 2 2 2 2 3 2 4 7 7 5 5 4 4 3 4 4 5 5 5 6 6 6 6 6 6 7 7 7 7 7 6
4 3 3 3 2 2 3 2 2 2 3 3 2 2 2 2 2 2 2 2 6 8 6 5 4 3 3 4 5 5 5 5 6 6 7 6 6 7 7 7 7 7 7
5 4 3 3 3 3 3 2 2 2 2 2 2 2 2 2 3 3 3 2 2 4 7 6 4 4 4 4 4 5 5 5 5 6 7 7 7 7 7 7 8 8 8
5 4 2 3 3 3 2 3 2 1 2 2 2 2 2 2 2 2 2 3 3 2 3 7 6 4 4 4 4 5 5 5 6 6 7 8 8 8 8 8 8 8 9
5 4 3 3 3 3 2 1 2 1 1 2 2 2 1 2 2 2 3 3 3 4 3 4 5 5 5 4 4 5 5 5 5 6 6 7 8 9 9 8 8 8 9
5 4 3 4 3 3 2 4 3 4 2 1 2 3 3 3 3 2 1 1 3 2 3 2 1 1 4 7 4 4 4 4 4 4 4 4 5 7 8 9 10 9 9
6 5 3 4 3 3 3 3 2 2 2 2 3 3 4 5 4 3 2 2 2 2 3 3 2 1 1 2 5 4 4 3 3 3 3 3 3 4 6 8 9 10 10
6 4 5 3 3 4 3 3 4 4 2 3 2 3 3 2 4 4 2 2 2 1 2 3 3 2 2 1 3 5 3 2 2 3 3 2 2 3 4 6 8 9 10
6 6 5 4 3 3 3 4 3 3 3 3 3 2 3 4 2 3 4 4 3 2 1 0 2 2 2 2 2 4 4 2 2 2 3 3 3 3 3 4 6 7 9
6 6 5 4 4 3 3 2 2 3 3 3 2 3 2 2 4 3 2 3 3 3 2 1 0 1 1 1 2 5 4 2 2 1 1 2 3 4 5 6 6 7 8
6 7 6 5 4 3 4 3 3 3 1 1 2 2 2 3 3 3 3 4 3 2 2 0 1 1 1 1 3 6 3 2 1 1 2 3 4 5 6 7 8 8 8
7 7 6 5 4 4 4 3 3 2 2 2 2 2 1 2 2 3 3 2 2 2 3 3 1 1 1 0 3 3 4 2 1 2 3 4 5 5 6 7 8 9 9
7 8 7 6 5 5 5 4 4 4 3 2 2 0 1 1 1 2 3 3 3 3 4 2 2 1 1 1 4 4 3 4 1 3 4 5 5 6 6 7 8 8 9
7 9 8 7 6 6 5 5 3 3 4 3 3 4 2 1 1 1 2 3 4 4 2 4 3 1 2 1 1 4 3 3 2 4 5 5 5 5 6 6 7 7 8
8 9 9 8 7 7 6 5 5 4 4 3 1 1 2 2 1 1 1 2 3 4 3 1 1 1 2 3 2 4 5 4 7 6 5 5 6 6 6 7 7 8 8
10 10 9 8 8 8 7 6 5 5 5 4 4 4 3 1 2 2 2 2 2 3 4 2 1 1 2 5 3 4 6 6 5 9 7 6 7 8 8 8 8 8 9
10 10 9 9 9 8 8 7 7 6 6 6 5 5 5 4 3 3 2 2 2 2 4 3 3 3 4 5 5 6 7 6 7 6 8 8 9 9 9 9 9 10 10
10 10 10 10 9 9 8 8 7 7 7 6 6 6 5 5 5 3 4 3 3 3 4 4 4 3 4 4 5 7 7 5 9 5 9 11 11 11 11 11 11 11 11
11 11 10 10 9 9 9 9 8 8 7 7 6 6 6 6 6 5 5 5 4 4 4 6 5 4 4 4 5 6 6 5 6 7 6 6 9 13 15 14 14 13 12
11 10 10 10 10 9 9 10 9 9 8 8 7 7 7 5 3 4 5 4 5 5 6 6 5 5 4 4 5 5 6 7 6 6 7 7 7 8 9 14 17 15 13
11 11 11 11 11 9 8 8 8 9 8 9 8 8 8 8 8 9 8 7 7 7 7 6 6 6 6 6 5 7 8 8 8 5 6 8 8 8 8 9 5 9 12
12 11 11 11 11 9 10 11 10 9 9 9 9 8 8 7 9 9 10 12 11 12 10 9 10 9 8 7 7 9 8 9 10 9 9 10 9 9 9 8 6 9 11
11 11 11 12 11 10 13 12 11 11 10 9 10 10 9 8 8 8 8 9 10 10 11 11 10 11 10 8 8 9 10 11 11 10 9 11 10 10 9 9 7 11 13
11 11 11 12 12 10 13 14 12 10 10 11 11 11 10 10 7 6 9 10 10 9 9 10 10 10 10 9 8 9 10 10 11 9 7 9 10 10 10 10 9 11 14
11 11 11 11 12 11 13 15 14 10 10 10 9 10 10 10 6 9 10 10 10 9 8 7 9 11 12 13 13 12 11 10 10 10 7 8 10 10 11 9 9 8 9
Wind_Direction
158 144 134 143 159 150 163 172 148 134 151 163 165 138 146 102 121 143 122 144 162 168 167 166 174 174 181 184 184 185 186 183 180 181 182 178 175 173 171 170 167 169 170
152 148 153 161 166 179 137 178 152 167 181 147 156 149 196 151 148 170 144 148 160 167 170 170 169 172 185 192 199 198 194 194 188 189 190 189 185 186 183 182 181 182 185
155 167 159 177 158 149 152 182 166 183 187 178 171 172 181 183 163 162 164 155 157 161 161 163 163 168 190 200 210 208 204 205 201 198 197 196 195 195 196 195 193 192 193
168 184 168 157 156 182 181 171 204 199 192 204 181 194 165 168 182 181 169 175 179 159 156 152 156 167 181 194 208 215 209 209 208 210 209 207 206 206 205 206 207 203 202
175 192 169 134 181 182 189 206 147 209 192 204 185 178 193 165 177 193 165 168 166 166 151 147 157 169 180 186 196 206 209 209 211 216 218 219 217 213 212 214 213 210 209
177 189 168 156 192 174 174 157 141 161 197 213 216 141 173 154 185 158 202 162 163 175 167 150 164 165 171 184 192 202 209 214 212 215 222 227 227 221 217 217 218 219 218
173 191 169 155 204 170 173 176 182 166 185 188 201 173 159 160 147 165 192 173 157 149 149 165 175 171 167 172 177 186 198 201 201 209 217 228 235 231 224 220 219 222 225
175 179 175 183 182 164 174 181 212 223 168 202 246 214 185 164 176 144 163 169 159 166 177 168 144 189 260 169 136 163 180 187 194 200 206 221 242 248 239 230 223 224 228
172 172 177 186 178 199 168 192 200 217 206 188 261 278 260 190 153 150 138 123 142 166 176 149 169 172 212 201 159 148 149 166 194 197 198 194 211 240 248 243 231 227 229
169 169 175 172 189 183 156 198 181 213 229 212 183 265 324 353 275 169 171 151 146 153 99 172 139 159 193 192 126 109 140 172 196 211 217 214 217 233 248 256 248 238 235
173 174 171 170 181 181 160 177 162 236 225 250 223 204 203 219 261 266 196 168 173 161 152 172 172 175 156 180 180 111 125 148 185 225 247 240 243 252 255 253 253 251 250
174 174 171 175 186 170 161 174 182 189 249 299 282 250 238 241 241 250 234 209 193 159 158 139 230 183 186 183 99 98 118 139 154 248 269 266 265 268 267 265 262 259 258
174 168 175 179 177 161 164 169 178 179 183 193 235 245 264 291 294 280 266 235 216 187 181 204 182 223 229 232 113 114 160 158 211 263 268 270 274 273 272 273 269 265 263
171 163 175 176 172 172 171 168 180 171 165 183 187 281 250 244 279 274 277 263 235 215 196 193 171 203 298 267 85 259 190 151 227 273 275 277 279 279 279 276 274 271 268
164 168 176 174 174 174 171 182 171 170 166 188 174 179 223 158 248 280 278 281 282 264 213 165 217 153 263 276 94 269 274 135 228 261 266 269 271 273 276 276 275 272 270
167 171 175 176 176 175 177 189 176 165 177 182 195 165 234 200 182 231 254 268 285 292 292 112 210 235 329 296 170 279 282 202 225 233 245 257 266 267 267 267 269 270 269
175 177 176 179 181 182 182 189 197 175 192 184 190 185 202 246 229 221 223 241 256 268 270 258 227 206 254 283 290 288 278 271 245 200 219 245 259 264 265 264 264 266 268
182 181 180 184 188 188 188 193 199 192 197 196 198 197 202 194 204 253 251 250 255 281 268 272 259 237 233 256 272 281 281 280 290 191 204 233 246 252 257 259 260 262 264
183 183 185 190 193 192 193 199 203 202 204 207 205 207 209 207 216 219 237 241 237 232 257 264 261 264 260 262 275 269 273 274 280 246 209 218 229 240 248 252 253 255 258
185 187 190 195 197 198 199 201 204 206 209 211 213 217 219 218 220 222 226 235 250 255 246 257 264 260 255 254 264 276 278 263 272 285 280 258 232 227 235 240 244 247 250
190 190 193 197 201 203 205 202 203 205 208 213 215 219 223 227 250 253 260 247 243 250 254 253 261 264 268 280 280 287 291 291 277 272 283 279 264 256 243 231 231 237 241
195 193 198 200 204 209 182 190 215 211 211 217 219 221 221 211 221 229 255 269 275 264 270 276 273 278 282 284 288 291 294 293 292 291 288 286 282 279 275 271 237 210 227
194 197 200 204 208 205 172 187 210 228 223 222 224 226 233 219 210 227 221 225 240 246 254 269 279 283 287 286 291 286 284 290 293 298 290 284 283 280 277 274 219 219 232
195 199 203 206 210 203 178 189 198 224 235 232 231 230 234 239 228 232 241 237 238 231 227 233 253 267 275 285 280 277 283 277 271 265 262 275 282 282 284 284 247 227 235
198 201 204 208 212 205 183 188 194 220 229 234 235 234 234 237 215 208 241 249 252 252 238 233 249 265 280 280 276 275 274 276 279 281 269 273 284 286 286 281 268 230 231
202 204 206 208 212 214 187 186 195 225 230 232 228 230 227 237 210 194 233 246 253 260 270 252 237 247 253 250 233 241 262 273 281 284 285 282 284 288 287 282 283 277 253